Temp_Advection
nan nan nan nan nan nan nan nan nan nan nan nan nan nan nan nan nan nan nan nan nan nan nan nan nan nan nan nan nan nan nan nan nan nan nan nan nan nan nan nan nan nan nan
nan 1 1 -0 0 0 0 0 0 0 0 0 1 0 -0 0 1 0 1 2 1 1 0 1 0 1 0 0 0 0 0 0 -1 0 1 -0 -1 -0 1 1 1 0 nan
nan 2 2 1 1 1 0 0 0 0 1 1 1 0 0 1 0 0 1 1 1 1 1 1 0 0 0 -0 0 0 0 0 0 1 0 0 -0 -0 1 1 0 0 nan
nan 2 1 1 1 1 1 0 1 1 1 0 1 0 0 0 0 1 1 1 1 1 1 0 0 0 0 -0 -0 0 0 -0 0 0 0 0 -0 0 0 0 0 0 nan
nan 0 -0 1 2 2 2 1 1 1 1 1 0 1 1 1 1 1 1 1 1 1 0 0 -0 -0 0 1 0 -0 -0 0 -0 -0 0 0 1 -0 -1 1 1 0 nan
nan -1 0 1 -1 1 3 4 3 2 2 2 2 1 1 1 1 1 1 0 0 0 0 0 -0 -0 -0 -0 -0 1 1 -0 -0 0 1 -0 0 -0 -0 1 1 0 nan
nan 0 1 1 -0 -1 -1 -0 2 2 2 2 1 1 0 0 0 0 0 0 1 0 0 -0 -0 -0 -0 -0 -0 0 0 -0 0 0 -0 0 0 -0 0 1 -1 1 nan
nan 1 1 0 -0 0 -0 -1 -1 -0 1 1 0 0 0 -0 0 1 1 1 1 0 0 -0 -0 -0 -1 -1 0 0 -0 -0 0 0 0 0 -0 -0 -0 -1 1 3 nan
nan -0 0 0 -1 -0 -1 -0 -0 0 -0 -1 -1 -1 -1 -1 -0 -0 0 0 1 0 0 -0 -0 -1 -1 -0 -0 0 0 -0 -1 -1 -0 -0 1 1 1 1 2 1 nan
nan 1 1 -1 -1 1 -1 -1 1 0 -1 -0 -1 -1 -1 0 0 -0 -1 -1 -1 -0 -1 -1 -1 -1 -1 -1 -0 0 -0 -0 -0 -0 -0 -1 -1 -0 1 1 1 1 nan
nan 1 -0 -0 0 -0 0 0 0 1 -0 -1 -1 -0 -0 -0 -1 -1 -0 -0 -1 -0 -1 -1 -1 -2 -1 -1 -1 -0 -0 0 -0 0 0 -0 -0 -0 1 2 3 2 nan
nan -0 0 -0 -0 0 -0 -0 0 -0 -1 -1 -1 -1 -1 0 -0 -0 -1 -1 -0 -1 -1 -1 -1 -1 -1 -1 -1 -0 -0 -0 -0 0 0 1 1 1 1 1 1 1 nan
nan -0 -1 -1 -0 -0 -1 -1 -1 -1 -1 -1 -1 -0 0 0 -0 -0 -0 -0 -0 -1 -1 -1 -0 -0 -0 -0 -1 -1 -0 -0 -0 0 -0 -1 1 2 1 1 1 1 nan
nan -1 -1 -1 -1 -2 -2 -2 -2 -2 -2 -1 -1 -2 -1 -1 -1 -1 -1 -0 -1 -0 -0 0 0 -0 -0 -0 -0 -0 -0 -0 -0 -1 -1 -0 0 1 1 1 1 2 nan
nan -2 -1 -1 -2 -2 -1 -2 -1 -1 -1 -1 -1 -0 -0 -1 -1 -1 -1 -1 -0 -0 -0 -0 -0 -1 -1 -1 -1 -1 -0 -0 -0 0 0 -0 0 0 0 0 0 0 nan
nan -0 -1 -2 -1 -0 -1 -0 0 -1 -0 0 0 0 -0 -0 -0 -0 -0 -1 -0 -0 -1 -1 -1 -1 -1 -1 -0 -0 -0 -0 -0 0 -0 -0 0 0 0 0 1 0 nan
nan -1 -1 -1 -1 -1 -1 -1 -1 -1 -1 -1 -1 -1 -0 -0 -0 -1 -1 -1 -1 -1 -2 -1 -1 -1 -1 -1 -0 -0 -0 -0 -0 0 0 -0 -0 -0 0 0 0 0 nan
nan -1 -1 -1 -1 -1 -1 -1 -1 -1 -1 -2 -1 -1 -1 -1 -1 -1 -0 -1 -1 -2 -1 -1 -1 -1 -1 -1 -1 -0 -0 -0 -0 -0 -0 0 0 0 0 0 0 0 nan
nan -1 -0 -1 -1 -0 -0 -0 -0 -1 -1 -1 -2 -2 -1 -2 -2 -1 -1 -1 -1 -1 -1 -1 -1 -0 -0 -0 -0 -0 -0 -0 -0 -0 0 -0 -0 0 0 0 0 0 nan
nan -1 -1 -1 -0 -0 -0 -0 -0 -0 -0 -0 -1 -1 -1 -2 -2 -2 -2 -1 -1 -1 -1 -1 -0 -0 -0 -0 -0 -0 -0 -0 -0 -0 -0 -0 -0 -0 -0 0 0 0 nan
nan -1 -1 -1 -0 -0 -0 -0 -0 -0 -0 -0 -0 -1 -1 -1 -1 -1 -1 -1 -1 -1 -1 -0 -0 -0 -0 -0 -0 -0 -0 -0 -0 -0 -0 -0 0 0 0 0 0 0 nan
nan -0 -0 -0 -0 -0 -0 -0 -0 -0 -0 -0 -0 -0 -1 -0 -0 -0 -0 -0 -0 -0 -0 -0 -0 -0 -0 -0 0 0 -0 0 -0 0 -0 -0 -0 -0 0 0 0 0 nan
nan -0 -0 -0 -0 -0 -0 -0 -0 -0 -0 -0 -0 -0 0 -0 -0 -0 -0 -0 -0 -0 -0 -0 -0 -0 -0 -0 -0 -0 -0 -0 -0 0 -0 -0 -0 -0 -0 -0 0 0 nan
nan -0 -0 -0 0 -0 -0 -0 -0 -0 -0 -0 -0 -0 -0 0 0 0 0 0 -0 -0 -0 -0 -0 -0 -0 -0 -0 -0 -0 -0 -0 0 0 -0 0 0 -0 0 0 0 nan
nan -0 -0 -0 0 0 0 0 0 0 0 0 0 0 -0 -0 0 0 0 0 0 0 -0 -0 -0 -0 -0 -0 -0 -0 -0 -0 -0 -0 0 -0 -0 0 0 -0 0 0 nan
nan nan nan nan nan nan nan nan nan nan nan nan nan nan nan nan nan nan nan nan nan nan nan nan nan nan nan nan nan nan nan nan nan nan nan nan nan nan nan nan nan nan nan
Wind_Speed
10 8 9 22 27 23 29 31 28 27 27 30 28 31 37 41 41 41 38 33 33 30 30 30 31 30 32 32 32 35 35 35 39 38 33 32 34 32 35 40 45 45 40
12 6 7 17 20 19 21 24 26 26 27 28 28 27 33 35 36 34 30 28 31 28 27 28 29 26 29 29 28 32 36 36 37 35 36 37 37 34 34 39 45 47 48
20 16 14 17 16 15 15 15 19 22 21 22 24 25 27 24 25 27 27 27 26 25 26 25 23 21 25 29 32 34 35 37 39 41 42 37 36 37 37 33 40 47 50
29 29 22 16 14 15 16 17 19 20 20 22 22 21 21 21 23 22 22 22 24 23 22 22 24 25 27 30 34 37 38 43 40 45 42 40 43 41 37 38 42 44 47
38 35 35 22 18 19 20 19 18 19 21 22 22 22 24 24 24 23 19 18 18 20 20 22 24 26 28 31 34 35 35 39 41 48 40 41 39 40 44 43 42 46 43
44 38 38 38 28 26 26 27 27 26 25 24 23 21 19 18 18 18 16 17 19 21 21 20 19 19 23 22 26 30 36 43 40 43 42 43 46 47 44 44 45 47 47
46 41 40 40 37 37 31 31 31 27 23 20 16 11 6 5 10 13 14 15 16 18 18 19 20 21 21 22 24 30 31 32 37 44 44 50 47 50 49 47 48 55 52
45 44 42 40 40 38 35 33 34 31 29 23 19 15 7 3 7 12 13 13 14 16 17 18 18 19 20 20 20 22 24 26 28 31 32 41 46 51 55 54 47 54 48
47 45 43 41 40 39 40 36 34 33 34 34 27 26 19 20 14 7 0 6 8 9 12 13 14 16 19 21 20 17 15 18 21 25 23 26 46 44 48 48 44 51 49
42 41 40 40 40 40 37 36 36 36 36 34 35 32 31 29 25 20 14 10 7 5 6 8 10 11 15 18 15 13 12 12 13 14 15 20 28 36 40 47 52 52 49
35 35 36 37 38 37 35 35 35 36 36 35 34 33 32 32 31 29 24 20 17 15 15 15 15 16 11 11 12 10 8 9 7 6 4 5 12 18 27 38 43 50 53
31 32 33 33 33 32 32 33 33 33 32 31 31 31 30 29 29 28 28 26 22 20 20 20 20 19 17 12 8 6 5 6 4 4 3 9 8 6 11 8 18 28 33
29 31 30 31 31 31 31 31 31 31 30 30 29 27 27 27 26 25 24 23 23 22 20 18 16 14 13 11 12 10 6 3 1 3 6 9 12 13 10 9 9 10 15
29 30 30 31 29 31 30 30 31 31 30 28 26 26 24 24 24 23 21 19 18 17 15 15 16 15 15 16 13 13 13 12 11 11 13 14 13 13 16 16 16 20 19
27 28 28 27 28 25 29 31 29 29 27 25 23 21 23 22 21 18 17 17 16 14 12 11 12 14 15 17 18 17 16 15 15 15 14 13 13 14 17 16 17 20 23
22 23 26 24 24 23 21 20 25 24 24 23 22 21 18 16 16 16 15 14 13 12 11 11 12 13 14 14 14 13 12 13 13 12 13 14 14 14 15 16 16 18 22
24 21 20 21 21 21 21 20 19 19 21 21 21 21 20 18 17 17 15 14 13 10 11 12 12 11 11 11 10 10 10 10 8 8 9 10 10 10 11 13 13 14 16
20 21 18 18 18 18 18 17 17 18 19 19 20 20 19 18 17 16 13 11 12 13 13 12 12 12 11 10 8 7 6 5 5 6 7 7 8 9 9 10 11 11 12
20 20 16 15 16 16 16 16 16 17 17 17 18 18 18 17 17 15 13 13 13 13 13 12 11 10 10 9 9 8 7 6 5 4 3 5 5 5 6 6 7 8 8
15 17 17 15 15 15 15 15 15 14 14 15 16 18 19 17 17 17 15 14 12 12 11 10 10 10 9 8 8 7 7 7 6 6 6 6 6 6 6 7 7 7 7
13 14 15 12 12 13 12 13 13 13 14 14 15 18 19 15 15 15 14 13 12 11 10 9 9 9 8 8 8 6 5 5 4 4 4 4 4 5 5 5 5 6 7
13 12 11 12 12 12 12 11 11 11 12 12 12 13 17 11 11 11 11 11 11 10 9 9 8 8 7 7 6 6 5 3 2 4 4 3 4 3 3 4 5 5 6
11 11 11 11 12 13 12 12 12 12 12 12 12 13 12 12 11 11 11 11 10 10 10 8 7 7 6 6 6 5 4 3 3 1 3 3 3 3 3 3 4 4 4
11 11 12 12 12 12 12 12 12 13 13 12 12 12 12 12 12 11 11 10 10 9 9 9 9 7 7 6 5 5 4 4 3 2 1 2 3 3 3 3 2 4 3
11 12 13 13 13 13 14 14 13 13 13 13 13 13 12 12 12 11 11 11 10 8 9 10 9 8 7 6 6 5 5 4 3 2 1 1 1 1 2 2 3 2 4
13 13 14 14 15 15 16 16 15 14 14 13 13 13 13 13 12 12 12 11 10 9 10 8 9 10 9 7 7 7 5 4 4 4 3 2 2 1 1 1 2 1 2
Wind_Direction
339 300 225 217 212 218 225 222 218 219 223 223 227 223 220 221 221 224 228 233 232 234 238 243 247 248 254 258 261 265 260 256 253 262 263 257 270 265 250 244 234 232 233
27 33 133 178 197 211 219 219 220 217 218 227 223 222 216 219 222 222 228 233 234 229 243 245 248 247 254 257 258 259 256 258 258 249 264 254 259 253 259 252 244 236 228
51 66 91 144 171 177 197 215 219 220 221 221 217 210 198 207 217 221 225 229 227 235 243 239 246 247 252 256 261 266 257 258 254 265 257 257 254 253 251 252 246 235 226
54 66 72 96 128 149 160 174 183 185 185 192 189 192 189 191 198 200 203 211 219 227 239 244 249 255 261 266 266 262 265 266 265 254 250 243 249 258 254 242 236 235 226
56 62 66 63 92 114 135 145 156 166 165 169 173 179 182 188 191 195 206 214 226 238 246 250 251 255 262 262 261 262 266 266 267 250 253 246 240 233 245 242 233 228 218
62 56 62 65 57 72 100 112 130 137 144 151 160 165 172 185 193 204 218 227 241 242 240 241 248 263 267 275 270 270 260 256 254 257 256 243 241 239 244 238 226 221 223
61 65 65 67 66 62 62 70 90 101 113 119 122 133 150 188 217 218 215 217 226 234 245 257 264 274 277 284 280 280 266 252 254 259 255 242 238 246 244 236 221 229 220
59 60 61 63 68 66 63 65 67 68 77 83 88 85 96 61 208 232 221 217 227 243 254 264 271 275 284 289 295 289 266 264 264 263 269 241 239 249 246 242 241 227 222
55 57 59 62 62 65 66 66 67 65 65 63 63 61 60 56 59 63 79 218 230 244 255 262 272 279 283 286 288 298 285 286 289 285 280 283 244 230 234 228 213 216 207
55 58 60 62 64 64 67 69 68 65 67 66 64 63 63 60 59 56 55 42 18 359 337 325 317 306 286 282 281 289 295 292 288 286 286 280 257 242 233 221 226 216 209
58 60 61 63 65 66 66 66 67 66 64 63 62 59 56 54 53 53 54 53 49 36 24 19 9 1 355 321 292 280 284 281 276 258 218 252 266 249 225 216 214 211 215
55 56 57 59 59 60 61 61 61 62 61 60 59 56 53 51 50 47 47 45 43 43 40 36 29 17 15 8 359 334 302 281 245 230 142 126 139 178 200 189 202 206 209
50 53 52 52 51 50 51 51 52 51 49 47 45 43 43 45 44 42 41 41 40 42 39 36 38 32 34 34 31 23 352 335 23 107 91 80 98 117 139 166 175 197 219
49 49 47 46 45 46 45 43 43 42 40 39 36 35 32 31 33 34 34 34 37 38 41 43 47 47 48 53 57 60 63 62 64 76 79 82 85 94 102 108 118 123 139
46 46 45 42 42 39 34 38 38 37 34 33 33 27 25 25 24 20 19 23 27 24 21 29 41 49 54 58 61 65 70 75 79 84 88 83 82 87 86 92 103 108 110
40 38 41 38 39 40 41 35 32 31 26 26 26 26 26 23 18 19 21 24 16 14 13 28 38 42 43 46 55 60 68 73 76 80 86 90 88 91 95 94 99 108 113
41 40 36 36 33 32 31 30 27 21 20 19 18 15 12 12 14 14 13 12 9 2 25 27 30 32 35 38 46 48 57 63 66 76 83 86 85 85 89 94 97 102 111
35 32 31 30 29 26 25 24 21 18 14 12 13 11 6 3 5 7 6 6 15 24 33 31 26 24 24 24 22 27 39 53 63 82 87 91 97 102 101 100 104 110 115
29 26 25 22 20 19 17 15 14 11 9 6 3 4 7 5 358 352 355 14 21 22 22 21 22 19 17 18 22 21 27 41 42 47 76 91 94 92 110 118 122 124 121
17 16 17 14 11 10 8 7 5 4 3 0 358 1 3 2 4 5 8 14 17 14 14 9 8 11 10 11 11 18 17 26 36 38 47 57 71 76 85 95 105 110 110
16 11 16 12 8 5 3 358 355 353 351 350 348 340 350 3 360 2 4 6 6 4 1 2 360 360 3 2 6 6 13 15 28 35 45 45 76 78 86 93 99 105 108
15 12 10 9 3 1 360 352 346 344 340 339 337 335 347 351 350 351 350 354 355 356 354 352 352 347 340 343 347 357 350 353 10 24 22 47 52 66 86 96 97 104 107
11 8 3 359 358 355 349 347 341 339 336 335 334 334 336 335 339 339 339 343 343 345 342 345 344 337 334 335 336 331 325 315 316 317 35 30 48 56 74 84 100 103 125
360 355 352 348 341 348 340 341 338 335 334 330 329 328 326 327 325 325 328 330 334 334 334 336 334 332 330 331 332 328 317 302 285 257 227 83 45 47 62 84 120 138 133
340 337 334 330 330 328 328 326 325 322 321 322 321 319 318 316 315 314 313 318 316 322 322 326 322 322 321 321 324 322 310 282 278 262 245 291 217 182 148 146 137 142 160
326 323 318 318 314 313 312 310 309 310 311 312 314 313 314 314 309 305 306 309 310 307 315 316 314 313 306 307 304 308 314 292 265 251 253 254 248 254 258 224 182 126 165
Height
1366 1361 1358 1360 1365 1370 1373 1377 1383 1386 1391 1395 1397 1400 1406 1410 1415 1420 1427 1431 1437 1441 1445 1448 1450 1452 1454 1455 1456 1456 1457 1459 1457 1457 1458 1461 1461 1464 1466 1468 1472 1476 1480
1362 1358 1354 1356 1361 1366 1370 1373 1378 1381 1386 1390 1392 1396 1400 1405 1411 1416 1421 1425 1431 1435 1438 1441 1443 1445 1447 1448 1448 1447 1449 1450 1450 1448 1450 1451 1451 1454 1457 1459 1460 1465 1469
1361 1356 1353 1354 1360 1362 1365 1370 1373 1377 1382 1386 1389 1393 1398 1403 1409 1413 1417 1422 1426 1429 1432 1435 1437 1439 1440 1441 1441 1440 1440 1440 1441 1441 1440 1441 1443 1446 1448 1450 1450 1454 1460
1361 1355 1355 1356 1358 1359 1361 1365 1368 1371 1377 1380 1384 1389 1394 1399 1404 1408 1412 1417 1420 1423 1426 1429 1431 1433 1433 1433 1432 1432 1432 1430 1430 1430 1430 1431 1432 1436 1439 1440 1443 1444 1446
1370 1363 1361 1365 1363 1361 1362 1365 1367 1371 1374 1378 1383 1387 1391 1395 1399 1404 1409 1412 1415 1418 1421 1423 1423 1423 1423 1423 1422 1422 1423 1421 1421 1418 1419 1422 1421 1423 1425 1429 1433 1435 1437
1374 1374 1372 1370 1369 1367 1365 1366 1367 1371 1375 1378 1383 1387 1391 1394 1398 1401 1405 1406 1409 1412 1414 1414 1414 1416 1413 1414 1413 1413 1413 1412 1410 1411 1409 1409 1410 1412 1415 1418 1422 1422 1429
1386 1383 1381 1378 1375 1375 1377 1372 1367 1373 1376 1379 1382 1386 1389 1392 1396 1399 1401 1400 1404 1407 1407 1407 1408 1407 1406 1405 1404 1403 1401 1400 1400 1400 1397 1396 1399 1401 1404 1406 1408 1411 1414
1398 1394 1390 1388 1385 1381 1380 1384 1382 1384 1376 1381 1385 1389 1387 1391 1389 1394 1394 1397 1400 1401 1401 1401 1401 1401 1399 1398 1398 1395 1393 1391 1391 1390 1386 1387 1386 1389 1392 1393 1396 1401 1407
1409 1406 1404 1401 1398 1395 1388 1393 1389 1389 1385 1384 1387 1390 1391 1393 1391 1392 1393 1394 1396 1397 1396 1396 1396 1394 1393 1394 1393 1391 1386 1383 1381 1380 1379 1377 1378 1380 1383 1386 1385 1390 1392
1424 1421 1418 1414 1412 1408 1409 1408 1404 1397 1398 1399 1395 1401 1400 1398 1397 1395 1394 1395 1395 1396 1395 1394 1392 1391 1389 1389 1388 1385 1381 1380 1378 1375 1373 1371 1370 1372 1374 1374 1377 1379 1384
1438 1435 1431 1427 1424 1422 1421 1417 1415 1410 1405 1407 1408 1408 1405 1404 1399 1398 1397 1397 1397 1397 1397 1394 1391 1391 1387 1387 1383 1381 1380 1379 1377 1374 1372 1370 1368 1367 1368 1368 1370 1373 1376
1447 1442 1439 1436 1433 1430 1428 1426 1423 1420 1419 1419 1419 1418 1416 1413 1410 1409 1405 1406 1403 1400 1398 1396 1393 1393 1390 1387 1383 1381 1382 1381 1377 1375 1373 1369 1367 1368 1367 1368 1368 1369 1373
1453 1449 1446 1443 1440 1437 1434 1432 1430 1428 1425 1423 1422 1422 1420 1418 1416 1415 1413 1411 1409 1406 1404 1401 1397 1397 1394 1389 1387 1385 1386 1383 1379 1376 1375 1374 1370 1368 1367 1367 1367 1370 1373
1459 1455 1453 1450 1448 1445 1443 1440 1437 1434 1432 1430 1429 1428 1425 1422 1419 1418 1417 1416 1414 1412 1409 1406 1402 1400 1399 1395 1391 1388 1388 1386 1384 1381 1380 1379 1379 1377 1371 1372 1373 1374 1373
1465 1461 1458 1456 1452 1451 1446 1444 1442 1440 1439 1437 1435 1433 1430 1427 1425 1425 1422 1419 1417 1414 1411 1409 1405 1403 1402 1399 1396 1395 1394 1392 1390 1387 1385 1386 1385 1383 1381 1381 1380 1379 1380
1469 1466 1463 1462 1459 1457 1455 1453 1450 1448 1445 1443 1440 1438 1436 1433 1430 1426 1423 1420 1418 1415 1414 1410 1408 1406 1405 1403 1401 1402 1400 1398 1396 1394 1391 1389 1390 1389 1387 1387 1386 1385 1387
1472 1470 1469 1467 1464 1462 1459 1457 1454 1452 1449 1446 1443 1440 1437 1434 1431 1427 1424 1422 1421 1418 1416 1415 1412 1411 1410 1408 1406 1406 1404 1402 1401 1398 1396 1394 1394 1393 1392 1391 1391 1392 1393
1476 1474 1472 1470 1468 1466 1464 1461 1458 1455 1452 1449 1446 1442 1439 1435 1431 1429 1427 1425 1423 1420 1419 1418 1417 1415 1413 1410 1408 1408 1406 1405 1403 1401 1399 1398 1397 1396 1397 1396 1397 1397 1397
1478 1476 1475 1473 1471 1468 1466 1463 1460 1457 1454 1450 1447 1444 1440 1437 1433 1430 1428 1426 1424 1423 1422 1420 1418 1417 1416 1413 1411 1410 1408 1404 1405 1405 1402 1400 1400 1400 1399 1399 1400 1400 1401
1482 1478 1476 1474 1472 1470 1468 1466 1464 1461 1458 1455 1451 1445 1442 1440 1436 1433 1430 1428 1427 1425 1424 1423 1421 1418 1416 1415 1413 1411 1410 1409 1407 1407 1405 1404 1403 1404 1403 1403 1402 1403 1404
1483 1481 1477 1477 1475 1473 1471 1468 1466 1463 1460 1457 1453 1447 1443 1442 1439 1436 1433 1430 1428 1427 1425 1424 1421 1419 1417 1415 1414 1412 1410 1410 1408 1407 1408 1407 1405 1405 1405 1405 1404 1404 1405
1484 1482 1480 1478 1476 1473 1470 1469 1467 1464 1462 1459 1455 1452 1447 1446 1443 1440 1436 1432 1429 1426 1424 1422 1421 1418 1416 1414 1413 1412 1411 1410 1408 1408 1408 1407 1407 1406 1405 1405 1405 1405 1406
1485 1483 1481 1479 1476 1473 1472 1469 1466 1463 1461 1458 1455 1451 1448 1445 1441 1438 1435 1431 1429 1426 1423 1421 1420 1418 1416 1414 1413 1411 1410 1409 1408 1407 1408 1408 1408 1407 1406 1406 1405 1406 1406
1486 1484 1482 1479 1476 1473 1471 1468 1466 1462 1459 1456 1453 1450 1447 1444 1441 1438 1435 1431 1428 1426 1423 1421 1418 1417 1415 1414 1412 1411 1409 1409 1408 1408 1407 1407 1407 1407 1406 1405 1405 1405 1406
1486 1483 1481 1479 1476 1473 1470 1468 1465 1461 1458 1455 1452 1449 1446 1443 1440 1438 1435 1431 1428 1426 1423 1420 1418 1416 1415 1413 1412 1411 1409 1408 1408 1407 1406 1406 1405 1405 1405 1405 1406 1406 1407
1484 1481 1479 1476 1474 1471 1468 1465 1462 1459 1456 1452 1449 1446 1443 1440 1438 1435 1433 1430 1427 1425 1422 1421 1418 1415 1413 1412 1411 1410 1408 1407 1406 1406 1405 1405 1405 1405 1405 1405 1406 1407 1407